Location: ???????
(60.4260°N, 46.9069°E)
Time: 05:47:57
(UTC+00:00)

IDEFIX/ARIANE 42P - Pass Details

Date: 30 March 2020
Orbit: 786 x 802 km, 98.4° (Epoch: 05 June)

Event Time Altitude Azimuth Distance (km) Brightness Sun altitude
Rises 00:25:27 0° 18° (NNE) 3,296 6.7 -14.1°
Reaches altitude 10° 00:27:49 10° 21° (NNE) 2,363 5.9 -13.8°
Maximum altitude 00:33:00 64° 103° (ESE) 873 3.0 -13.3°
Drops below altitude 10° 00:38:10 10° 186° (S) 2,350 4.7 -12.8°
Enters shadow 00:39:31 - 188° (S) 2,885 5.1 -12.6°
